| time (UTC) | temp C | wind direction | speed KPH | gust KPH | rain 1hr cm | rain 24hr cm | rain mn cm | humidity % | barometer mb |
| 20260507203249 | 12 | 148 | 0.0 | 0.0 | 0.00 | 0.08 | 0.03 | 72 | 1012.0 |
| 20260507202749 | 12 | 148 | 0.0 | 0.0 | 0.00 | 0.08 | 0.03 | 72 | 1012.0 |
| 20260507202249 | 12 | 148 | 0.0 | 0.0 | 0.00 | 0.08 | 0.03 | 73 | 1012.0 |
| 20260507201748 | 12 | 148 | 0.0 | 0.0 | 0.00 | 0.08 | 0.03 | 72 | 1012.0 |
| 20260507201248 | 12 | 148 | 0.0 | 0.0 | 0.00 | 0.08 | 0.03 | 72 | 1011.9 |
| 20260507200748 | 12 | 148 | 0.0 | 0.0 | 0.00 | 0.08 | 0.03 | 72 | 1011.8 |
| 20260507200248 | 12 | 148 | 0.0 | 0.0 | 0.00 | 0.08 | 0.03 | 72 | 1011.8 |
| 20260507195747 | 12 | 148 | 0.0 | 0.0 | 0.00 | 0.33 | 0.03 | 72 | 1011.7 |
| 20260507195247 | 12 | 148 | 0.0 | 0.0 | 0.00 | 0.33 | 0.03 | 72 | 1011.6 |
| 20260507194747 | 12 | 148 | 0.0 | 0.0 | 0.00 | 0.33 | 0.03 | 71 | 1011.6 |
| 20260507194247 | 13 | 148 | 0.0 | 0.0 | 0.00 | 0.33 | 0.03 | 70 | 1011.5 |
| 20260507193747 | 13 | 148 | 0.0 | 0.0 | 0.00 | 0.33 | 0.03 | 70 | 1011.4 |
| 20260507193246 | 13 | 148 | 0.0 | 0.0 | 0.00 | 0.33 | 0.03 | 70 | 1011.4 |
| 20260507192746 | 13 | 148 | 0.0 | 0.0 | 0.00 | 0.33 | 0.03 | 69 | 1011.3 |
| 20260507192246 | 13 | 148 | 0.0 | 0.0 | 0.00 | 0.33 | 0.03 | 69 | 1011.2 |
| 20260507191745 | 13 | 148 | 0.0 | 0.0 | 0.00 | 0.33 | 0.03 | 68 | 1011.2 |
| 20260507191245 | 13 | 148 | 0.0 | 3.2 | 0.00 | 0.33 | 0.03 | 68 | 1011.1 |
| 20260507190745 | 13 | 296 | 0.0 | 0.0 | 0.00 | 0.33 | 0.03 | 67 | 1011.0 |
| 20260507190244 | 14 | 296 | 0.0 | 0.0 | 0.00 | 0.33 | 0.03 | 67 | 1010.9 |
| 20260507185744 | 14 | 296 | 0.0 | 1.6 | 0.00 | 0.33 | 0.03 | 66 | 1011.0 |
| 20260507185244 | 14 | 296 | 0.0 | 0.0 | 0.00 | 0.33 | 0.03 | 66 | 1010.9 |
| 20260507184744 | 15 | 296 | 0.0 | 0.0 | 0.00 | 0.33 | 0.03 | 65 | 1010.9 |
| 20260507184243 | 15 | 296 | 0.0 | 3.2 | 0.00 | 0.33 | 0.03 | 65 | 1010.9 |
| 20260507183743 | 15 | 301 | 0.0 | 3.2 | 0.00 | 0.33 | 0.03 | 64 | 1010.8 |
| 20260507183243 | 15 | 307 | 0.0 | 1.6 | 0.00 | 0.33 | 0.03 | 62 | 1010.9 |
| 20260507182743 | 15 | 288 | 0.0 | 1.6 | 0.00 | 0.33 | 0.03 | 63 | 1010.8 |
| 20260507182242 | 16 | 288 | 0.0 | 3.2 | 0.00 | 0.33 | 0.03 | 61 | 1010.9 |
| 20260507181742 | 16 | 310 | 0.0 | 0.0 | 0.00 | 0.33 | 0.03 | 60 | 1010.7 |
| 20260507181242 | 16 | 146 | 0.0 | 0.0 | 0.00 | 0.33 | 0.03 | 59 | 1010.8 |
| 20260507180742 | 16 | 146 | 0.0 | 1.6 | 0.00 | 0.33 | 0.03 | 58 | 1010.6 |
| 20260507180241 | 16 | 221 | 0.0 | 1.6 | 0.00 | 0.33 | 0.03 | 57 | 1010.6 |
| 20260507175741 | 16 | 127 | 0.0 | 1.6 | 0.00 | 0.33 | 0.03 | 56 | 1010.5 |
| 20260507175241 | 16 | 130 | 0.0 | 1.6 | 0.00 | 0.33 | 0.03 | 55 | 1010.5 |
| 20260507174740 | 16 | 130 | 0.0 | 3.2 | 0.00 | 0.33 | 0.03 | 56 | 1010.6 |
| 20260507174240 | 17 | 127 | 0.0 | 3.2 | 0.00 | 0.33 | 0.03 | 55 | 1010.6 |
| 20260507173740 | 17 | 129 | 0.0 | 1.6 | 0.00 | 0.33 | 0.03 | 55 | 1010.7 |
| 20260507173240 | 17 | 130 | 0.0 | 1.6 | 0.00 | 0.33 | 0.03 | 54 | 1010.6 |
| 20260507172740 | 17 | 123 | 0.0 | 4.8 | 0.00 | 0.33 | 0.03 | 54 | 1010.6 |
| 20260507172239 | 17 | 129 | 0.0 | 3.2 | 0.00 | 0.33 | 0.03 | 54 | 1010.5 |
| 20260507171739 | 17 | 146 | 0.0 | 4.8 | 0.00 | 0.33 | 0.03 | 54 | 1010.5 |
| 20260507171239 | 18 | 138 | 0.0 | 3.2 | 0.00 | 0.33 | 0.03 | 53 | 1010.5 |
| 20260507170738 | 18 | 146 | 0.0 | 3.2 | 0.00 | 0.33 | 0.03 | 52 | 1010.5 |
| 20260507170238 | 18 | 134 | 0.0 | 1.6 | 0.00 | 0.33 | 0.03 | 52 | 1010.5 |
| 20260507165738 | 19 | 122 | 0.0 | 3.2 | 0.00 | 0.33 | 0.03 | 50 | 1010.6 |
| 20260507165238 | 19 | 193 | 0.0 | 1.6 | 0.00 | 0.33 | 0.03 | 50 | 1010.5 |
| 20260507164737 | 20 | 137 | 0.0 | 3.2 | 0.00 | 0.33 | 0.03 | 47 | 1010.5 |
| 20260507164237 | 20 | 121 | 1.6 | 4.8 | 0.00 | 0.33 | 0.03 | 48 | 1010.5 |
| 20260507163737 | 20 | 148 | 0.0 | 3.2 | 0.00 | 0.33 | 0.03 | 46 | 1010.6 |
| 20260507163236 | 21 | 143 | 0.0 | 1.6 | 0.00 | 0.33 | 0.03 | 47 | 1010.6 |
| 20260507162736 | 20 | 113 | 0.0 | 1.6 | 0.00 | 0.33 | 0.03 | 47 | 1010.6 |
| 20260507162236 | 20 | 162 | 0.0 | 3.2 | 0.00 | 0.33 | 0.03 | 48 | 1010.6 |
| 20260507161736 | 20 | 127 | 0.0 | 6.4 | 0.00 | 0.33 | 0.03 | 46 | 1010.6 |
| 20260507161235 | 20 | 159 | 0.0 | 6.4 | 0.00 | 0.33 | 0.03 | 46 | 1010.6 |
| 20260507160735 | 20 | 153 | 0.0 | 6.4 | 0.00 | 0.33 | 0.03 | 47 | 1010.7 |
| 20260507160235 | 20 | 110 | 0.0 | 6.4 | 0.00 | 0.33 | 0.03 | 48 | 1010.6 |
| 20260507155735 | 20 | 143 | 0.0 | 1.6 | 0.00 | 0.33 | 0.03 | 48 | 1010.8 |
| 20260507155234 | 19 | 147 | 0.0 | 3.2 | 0.00 | 0.33 | 0.03 | 50 | 1010.6 |
| 20260507154734 | 18 | 129 | 1.6 | 4.8 | 0.00 | 0.33 | 0.03 | 50 | 1010.7 |
| 20260507154234 | 19 | 130 | 1.6 | 4.8 | 0.00 | 0.33 | 0.03 | 48 | 1010.6 |
| 20260507153734 | 20 | 154 | 1.6 | 4.8 | 0.00 | 0.33 | 0.03 | 46 | 1010.6 |
| 20260507153233 | 20 | 150 | 0.0 | 6.4 | 0.00 | 0.33 | 0.03 | 45 | 1010.6 |
| 20260507152733 | 20 | 206 | 0.0 | 3.2 | 0.00 | 0.33 | 0.03 | 46 | 1010.6 |
| 20260507152233 | 20 | 160 | 0.0 | 3.2 | 0.00 | 0.33 | 0.03 | 47 | 1010.6 |
| 20260507151732 | 20 | 161 | 1.6 | 3.2 | 0.00 | 0.33 | 0.03 | 47 | 1010.6 |
| 20260507151232 | 20 | 216 | 1.6 | 6.4 | 0.00 | 0.33 | 0.03 | 46 | 1010.6 |
| 20260507150732 | 20 | 141 | 0.0 | 3.2 | 0.00 | 0.33 | 0.03 | 47 | 1010.6 |
| 20260507150232 | 20 | 134 | 1.6 | 4.8 | 0.00 | 0.33 | 0.03 | 49 | 1010.6 |
| 20260507145731 | 20 | 176 | 1.6 | 4.8 | 0.00 | 0.33 | 0.03 | 47 | 1010.8 |
| 20260507145231 | 20 | 160 | 1.6 | 8.0 | 0.00 | 0.33 | 0.03 | 46 | 1010.9 |
| 20260507144731 | 20 | 148 | 0.0 | 3.2 | 0.00 | 0.33 | 0.03 | 46 | 1010.8 |
| 20260507144231 | 20 | 199 | 1.6 | 3.2 | 0.00 | 0.33 | 0.03 | 45 | 1010.8 |
| 20260507143730 | 20 | 152 | 0.0 | 4.8 | 0.00 | 0.33 | 0.03 | 45 | 1010.8 |
| 20260507143230 | 21 | 154 | 0.0 | 4.8 | 0.00 | 0.33 | 0.03 | 46 | 1010.8 |
| 20260507142730 | 21 | 139 | 0.0 | 3.2 | 0.00 | 0.33 | 0.03 | 45 | 1010.8 |
| 20260507142229 | 21 | 148 | 0.0 | 3.2 | 0.00 | 0.33 | 0.03 | 47 | 1010.8 |
| 20260507141729 | 20 | 147 | 1.6 | 4.8 | 0.00 | 0.33 | 0.03 | 47 | 1010.8 |
| 20260507141229 | 20 | 156 | 0.0 | 3.2 | 0.00 | 0.33 | 0.03 | 47 | 1011.0 |
| 20260507140729 | 20 | 134 | 0.0 | 3.2 | 0.00 | 0.33 | 0.03 | 48 | 1011.1 |
| 20260507140229 | 20 | 136 | 0.0 | 1.6 | 0.00 | 0.33 | 0.03 | 48 | 1011.1 |
| 20260507135728 | 20 | 121 | 0.0 | 3.2 | 0.00 | 0.33 | 0.03 | 50 | 1011.0 |
| 20260507135228 | 19 | 295 | 1.6 | 6.4 | 0.00 | 0.33 | 0.03 | 51 | 1011.1 |
| 20260507134728 | 18 | 127 | 0.0 | 6.4 | 0.00 | 0.33 | 0.03 | 51 | 1011.1 |
| 20260507134227 | 18 | 142 | 0.0 | 3.2 | 0.00 | 0.33 | 0.03 | 50 | 1011.1 |
| 20260507133727 | 19 | 155 | 1.6 | 4.8 | 0.00 | 0.33 | 0.03 | 50 | 1011.2 |
| 20260507133227 | 18 | 160 | 0.0 | 6.4 | 0.00 | 0.33 | 0.03 | 48 | 1011.1 |
| 20260507132727 | 18 | 134 | 0.0 | 3.2 | 0.00 | 0.33 | 0.03 | 50 | 1011.3 |
| 20260507132226 | 19 | 147 | 0.0 | 4.8 | 0.00 | 0.33 | 0.03 | 50 | 1011.3 |
| 20260507131726 | 19 | 158 | 0.0 | 4.8 | 0.00 | 0.33 | 0.03 | 52 | 1011.3 |
| 20260507131226 | 19 | 127 | 0.0 | 1.6 | 0.00 | 0.33 | 0.03 | 53 | 1011.4 |
| 20260507130725 | 18 | 95 | 1.6 | 4.8 | 0.00 | 0.33 | 0.03 | 52 | 1011.5 |
| 20260507130225 | 19 | 144 | 1.6 | 4.8 | 0.00 | 0.33 | 0.03 | 49 | 1011.4 |
| 20260507125725 | 20 | 158 | 1.6 | 4.8 | 0.00 | 0.33 | 0.03 | 50 | 1011.5 |
| 20260507125225 | 20 | 144 | 1.6 | 4.8 | 0.00 | 0.33 | 0.03 | 53 | 1011.4 |
| 20260507124724 | 19 | 134 | 1.6 | 3.2 | 0.00 | 0.33 | 0.03 | 56 | 1011.4 |
| 20260507124224 | 18 | 139 | 1.6 | 4.8 | 0.00 | 0.33 | 0.03 | 54 | 1011.5 |
| 20260507123724 | 18 | 139 | 1.6 | 6.4 | 0.00 | 0.33 | 0.03 | 55 | 1011.5 |
| 20260507123224 | 18 | 165 | 0.0 | 3.2 | 0.00 | 0.33 | 0.03 | 59 | 1011.5 |
| 20260507122723 | 17 | 150 | 0.0 | 3.2 | 0.00 | 0.33 | 0.03 | 60 | 1011.5 |
| 20260507122223 | 17 | 144 | 1.6 | 6.4 | 0.00 | 0.33 | 0.03 | 62 | 1011.5 |
| 20260507121723 | 16 | 203 | 1.6 | 4.8 | 0.00 | 0.33 | 0.03 | 61 | 1011.5 |
| 20260507121223 | 16 | 116 | 1.6 | 6.4 | 0.00 | 0.33 | 0.03 | 61 | 1011.6 |
| 20260507120722 | 17 | 139 | 0.0 | 4.8 | 0.00 | 0.33 | 0.03 | 60 | 1011.7 |
| 20260507120222 | 18 | 141 | 0.0 | 3.2 | 0.00 | 0.33 | 0.03 | 59 | 1011.5 |
| 20260507115722 | 18 | 150 | 0.0 | 1.6 | 0.00 | 0.36 | 0.03 | 59 | 1011.6 |
| 20260507115221 | 18 | 157 | 0.0 | 3.2 | 0.00 | 0.36 | 0.03 | 59 | 1011.6 |
| 20260507114721 | 18 | 124 | 1.6 | 4.8 | 0.00 | 0.36 | 0.03 | 61 | 1011.6 |
| 20260507114221 | 18 | 135 | 1.6 | 4.8 | 0.00 | 0.36 | 0.03 | 62 | 1011.5 |
| 20260507113721 | 18 | 132 | 1.6 | 3.2 | 0.00 | 0.36 | 0.03 | 61 | 1011.6 |
| 20260507113220 | 18 | 150 | 1.6 | 6.4 | 0.00 | 0.36 | 0.03 | 57 | 1011.7 |
| 20260507112720 | 18 | 136 | 0.0 | 4.8 | 0.00 | 0.36 | 0.03 | 60 | 1011.8 |
| 20260507112220 | 18 | 152 | 1.6 | 3.2 | 0.00 | 0.36 | 0.03 | 62 | 1011.7 |
| 20260507111720 | 18 | 158 | 1.6 | 8.0 | 0.00 | 0.36 | 0.03 | 61 | 1011.8 |
| 20260507111219 | 18 | 149 | 1.6 | 8.0 | 0.00 | 0.36 | 0.03 | 62 | 1011.8 |
| 20260507110719 | 18 | 136 | 0.0 | 6.4 | 0.00 | 0.36 | 0.03 | 57 | 1011.8 |
| 20260507110219 | 18 | 162 | 0.0 | 1.6 | 0.00 | 0.36 | 0.03 | 61 | 1011.8 |
| 20260507105719 | 17 | 146 | 0.0 | 3.2 | 0.00 | 0.38 | 0.03 | 53 | 1011.7 |
| 20260507105218 | 17 | 160 | 1.6 | 1.6 | 0.00 | 0.38 | 0.03 | 58 | 1011.7 |
| 20260507104718 | 17 | 295 | 1.6 | 6.4 | 0.00 | 0.38 | 0.03 | 60 | 1011.8 |
| 20260507104218 | 17 | 148 | 1.6 | 3.2 | 0.00 | 0.38 | 0.03 | 59 | 1011.9 |
| 20260507103717 | 17 | 322 | 1.6 | 8.0 | 0.00 | 0.38 | 0.03 | 62 | 1011.9 |
| 20260507103217 | 17 | 306 | 1.6 | 6.4 | 0.00 | 0.38 | 0.03 | 60 | 1012.0 |
| 20260507102717 | 17 | 263 | 0.0 | 9.7 | 0.00 | 0.38 | 0.03 | 59 | 1011.9 |
| 20260507102217 | 18 | 120 | 0.0 | 1.6 | 0.00 | 0.38 | 0.03 | 59 | 1012.0 |
| 20260507101716 | 18 | 120 | 0.0 | 1.6 | 0.00 | 0.38 | 0.03 | 60 | 1012.0 |
| 20260507101216 | 17 | 120 | 0.0 | 3.2 | 0.00 | 0.38 | 0.03 | 60 | 1012.0 |
| 20260507100716 | 17 | 123 | 0.0 | 3.2 | 0.00 | 0.38 | 0.03 | 60 | 1012.0 |
| 20260507100216 | 17 | 132 | 0.0 | 1.6 | 0.00 | 0.38 | 0.03 | 65 | 1012.0 |
| 20260507095715 | 17 | 124 | 0.0 | 6.4 | 0.00 | 0.48 | 0.03 | 58 | 1012.0 |
| 20260507095215 | 17 | 172 | 0.0 | 3.2 | 0.00 | 0.48 | 0.03 | 63 | 1012.1 |
| 20260507094715 | 17 | 176 | 0.0 | 3.2 | 0.00 | 0.48 | 0.03 | 69 | 1012.0 |
| 20260507094214 | 16 | 158 | 0.0 | 3.2 | 0.00 | 0.48 | 0.03 | 73 | 1012.0 |
| 20260507093714 | 16 | 156 | 0.0 | 4.8 | 0.00 | 0.48 | 0.03 | 69 | 1012.1 |
| 20260507093214 | 16 | 178 | 1.6 | 4.8 | 0.00 | 0.48 | 0.03 | 68 | 1012.0 |
| 20260507092714 | 16 | 134 | 1.6 | 4.8 | 0.00 | 0.48 | 0.03 | 68 | 1012.1 |
| 20260507092213 | 16 | 124 | 0.0 | 3.2 | 0.00 | 0.48 | 0.03 | 67 | 1012.0 |
| 20260507091713 | 15 | 139 | 0.0 | 1.6 | 0.00 | 0.48 | 0.03 | 71 | 1012.1 |
| 20260507091213 | 15 | 136 | 0.0 | 3.2 | 0.00 | 0.48 | 0.03 | 68 | 1012.1 |
| 20260507090713 | 15 | 140 | 0.0 | 4.8 | 0.00 | 0.48 | 0.03 | 72 | 1012.1 |
| 20260507090212 | 15 | 122 | 0.0 | 1.6 | 0.00 | 0.48 | 0.03 | 71 | 1012.0 |
| 20260507085712 | 15 | 142 | 0.0 | 4.8 | 0.00 | 0.76 | 0.03 | 71 | 1012.0 |
| 20260507085212 | 15 | 153 | 0.0 | 3.2 | 0.00 | 0.76 | 0.03 | 74 | 1012.0 |
| 20260507084712 | 14 | 125 | 0.0 | 3.2 | 0.00 | 0.76 | 0.03 | 72 | 1012.0 |
| 20260507084211 | 14 | 141 | 0.0 | 3.2 | 0.00 | 0.76 | 0.03 | 72 | 1012.0 |
| 20260507083711 | 15 | 143 | 1.6 | 4.8 | 0.00 | 0.76 | 0.03 | 72 | 1011.9 |
| 20260507083211 | 14 | 135 | 0.0 | 3.2 | 0.00 | 0.76 | 0.03 | 75 | 1012.1 |
| 20260507082710 | 14 | 137 | 0.0 | 3.2 | 0.00 | 0.76 | 0.03 | 69 | 1012.0 |
| 20260507082210 | 14 | 170 | 0.0 | 1.6 | 0.00 | 0.76 | 0.03 | 77 | 1012.1 |
| 20260507081710 | 13 | 127 | 0.0 | 1.6 | 0.00 | 0.76 | 0.03 | 76 | 1012.0 |
| 20260507081210 | 13 | 127 | 0.0 | 4.8 | 0.00 | 0.76 | 0.03 | 77 | 1012.0 |
| 20260507080709 | 12 | 163 | 0.0 | 1.6 | 0.00 | 0.76 | 0.03 | 80 | 1012.1 |
| 20260507080209 | 12 | 131 | 0.0 | 4.8 | 0.00 | 0.76 | 0.03 | 78 | 1012.2 |
| 20260507075709 | 12 | 131 | 0.0 | 3.2 | 0.00 | 1.17 | 0.03 | 80 | 1012.1 |
| 20260507075209 | 12 | 162 | 0.0 | 1.6 | 0.00 | 1.17 | 0.03 | 84 | 1012.0 |
| 20260507074708 | 11 | 108 | 0.0 | 3.2 | 0.00 | 1.17 | 0.03 | 85 | 1012.1 |
| 20260507074208 | 11 | 125 | 0.0 | 4.8 | 0.00 | 1.17 | 0.03 | 84 | 1012.0 |
| 20260507073708 | 11 | 164 | 0.0 | 1.6 | 0.00 | 1.17 | 0.03 | 86 | 1012.0 |
| 20260507073208 | 11 | 148 | 0.0 | 1.6 | 0.00 | 1.17 | 0.03 | 86 | 1012.0 |
| 20260507072707 | 10 | 150 | 1.6 | 6.4 | 0.00 | 1.17 | 0.03 | 84 | 1012.0 |
| 20260507072207 | 11 | 131 | 0.0 | 6.4 | 0.00 | 1.17 | 0.03 | 84 | 1012.0 |
| 20260507071707 | 11 | 116 | 0.0 | 3.2 | 0.00 | 1.17 | 0.03 | 85 | 1012.0 |
| 20260507071206 | 11 | 144 | 0.0 | 1.6 | 0.00 | 1.17 | 0.03 | 86 | 1012.0 |
| 20260507070706 | 11 | 141 | 0.0 | 1.6 | 0.00 | 1.17 | 0.03 | 87 | 1011.9 |
| 20260507070206 | 10 | 118 | 0.0 | 3.2 | 0.00 | 1.17 | 0.03 | 87 | 1011.9 |
| 20260507065706 | 10 | 319 | 0.0 | 0.0 | 0.00 | 1.60 | 0.03 | 87 | 1011.9 |
| 20260507065205 | 10 | 189 | 0.0 | 0.0 | 0.00 | 1.60 | 0.03 | 88 | 1011.9 |
| 20260507064705 | 10 | 180 | 0.0 | 1.6 | 0.00 | 1.60 | 0.03 | 88 | 1011.9 |
| 20260507064205 | 10 | 309 | 0.0 | 4.8 | 0.00 | 1.60 | 0.03 | 87 | 1011.9 |
| 20260507063705 | 10 | 309 | 0.0 | 4.8 | 0.00 | 1.60 | 0.03 | 87 | 1012.0 |
| 20260507063204 | 10 | 314 | 0.0 | 0.0 | 0.00 | 1.60 | 0.03 | 88 | 1011.9 |
| 20260507062704 | 9 | 314 | 0.0 | 0.0 | 0.00 | 1.60 | 0.03 | 90 | 1011.9 |
| 20260507062204 | 9 | 314 | 0.0 | 0.0 | 0.00 | 1.60 | 0.03 | 89 | 1011.8 |
| 20260507061704 | 9 | 314 | 0.0 | 1.6 | 0.00 | 1.60 | 0.03 | 88 | 1011.8 |
| 20260507061203 | 9 | 314 | 0.0 | 0.0 | 0.00 | 1.60 | 0.03 | 89 | 1011.9 |
| 20260507060703 | 9 | 314 | 0.0 | 0.0 | 0.00 | 1.60 | 0.03 | 90 | 1011.8 |
| 20260507060203 | 9 | 314 | 0.0 | 0.0 | 0.00 | 1.60 | 0.03 | 90 | 1011.8 |
| 20260507055702 | 9 | 314 | 0.0 | 0.0 | 0.00 | 1.80 | 0.03 | 91 | 1011.8 |
| 20260507055202 | 8 | 314 | 0.0 | 0.0 | 0.00 | 1.80 | 0.03 | 92 | 1011.8 |
| 20260507054702 | 8 | 314 | 0.0 | 0.0 | 0.00 | 1.80 | 0.03 | 92 | 1011.7 |
| 20260507054202 | 8 | 314 | 0.0 | 0.0 | 0.00 | 1.80 | 0.03 | 92 | 1011.6 |
| 20260507053701 | 8 | 314 | 0.0 | 0.0 | 0.00 | 1.80 | 0.03 | 93 | 1011.6 |
| 20260507053201 | 8 | 314 | 0.0 | 0.0 | 0.00 | 1.80 | 0.03 | 93 | 1011.6 |
| 20260507052701 | 8 | 314 | 0.0 | 0.0 | 0.00 | 1.80 | 0.03 | 93 | 1011.5 |
| 20260507052201 | 8 | 314 | 0.0 | 0.0 | 0.00 | 1.80 | 0.03 | 93 | 1011.5 |
| 20260507051700 | 8 | 314 | 0.0 | 0.0 | 0.00 | 1.80 | 0.03 | 93 | 1011.4 |
| 20260507051200 | 8 | 314 | 0.0 | 0.0 | 0.00 | 1.80 | 0.03 | 93 | 1011.4 |
| 20260507050700 | 8 | 314 | 0.0 | 0.0 | 0.00 | 1.80 | 0.03 | 93 | 1011.4 |
| 20260507050200 | 8 | 314 | 0.0 | 0.0 | 0.00 | 1.80 | 0.03 | 93 | 1011.3 |
| 20260507045659 | 8 | 314 | 0.0 | 0.0 | 0.00 | 1.85 | 0.03 | 92 | 1011.4 |
| 20260507045159 | 7 | 314 | 0.0 | 0.0 | 0.00 | 1.85 | 0.03 | 92 | 1011.3 |
| 20260507044659 | 7 | 314 | 0.0 | 0.0 | 0.00 | 1.85 | 0.03 | 92 | 1011.3 |
| 20260507044158 | 7 | 314 | 0.0 | 0.0 | 0.00 | 1.85 | 0.03 | 92 | 1011.3 |
| 20260507043658 | 7 | 314 | 0.0 | 0.0 | 0.00 | 1.85 | 0.03 | 92 | 1011.2 |
| 20260507043158 | 7 | 314 | 0.0 | 0.0 | 0.00 | 1.85 | 0.03 | 92 | 1011.2 |
| 20260507042658 | 8 | 314 | 0.0 | 0.0 | 0.00 | 1.85 | 0.03 | 92 | 1011.2 |
| 20260507042157 | 7 | 314 | 0.0 | 0.0 | 0.00 | 1.85 | 0.03 | 92 | 1011.1 |
| 20260507041657 | 7 | 314 | 0.0 | 0.0 | 0.00 | 1.85 | 0.03 | 92 | 1011.2 |
| 20260507041157 | 7 | 314 | 0.0 | 0.0 | 0.00 | 1.85 | 0.03 | 91 | 1011.1 |
| 20260507040657 | 7 | 313 | 0.0 | 0.0 | 0.00 | 1.85 | 0.03 | 92 | 1011.1 |
| 20260507040156 | 7 | 314 | 0.0 | 0.0 | 0.00 | 1.85 | 0.03 | 92 | 1011.1 |
| 20260507035656 | 7 | 313 | 0.0 | 0.0 | 0.00 | 1.85 | 0.03 | 92 | 1011.1 |
| 20260507035156 | 7 | 313 | 0.0 | 0.0 | 0.00 | 1.85 | 0.03 | 92 | 1011.0 |
| 20260507034656 | 7 | 314 | 0.0 | 0.0 | 0.00 | 1.85 | 0.03 | 92 | 1011.0 |
| 20260507034155 | 7 | 314 | 0.0 | 0.0 | 0.00 | 1.85 | 0.03 | 93 | 1011.0 |
| 20260507033655 | 7 | 313 | 0.0 | 0.0 | 0.00 | 1.85 | 0.03 | 93 | 1011.0 |
| 20260507033155 | 7 | 313 | 0.0 | 0.0 | 0.00 | 1.85 | 0.03 | 93 | 1011.0 |
| 20260507032654 | 7 | 313 | 0.0 | 0.0 | 0.00 | 1.85 | 0.03 | 93 | 1011.0 |
| 20260507032154 | 7 | 313 | 0.0 | 0.0 | 0.00 | 1.85 | 0.03 | 93 | 1011.0 |
| 20260507031654 | 7 | 313 | 0.0 | 0.0 | 0.00 | 1.85 | 0.03 | 93 | 1010.9 |
| 20260507031154 | 7 | 313 | 0.0 | 0.0 | 0.00 | 1.85 | 0.03 | 92 | 1011.0 |
| 20260507030653 | 7 | 313 | 0.0 | 0.0 | 0.00 | 1.85 | 0.03 | 92 | 1010.9 |
| 20260507030153 | 7 | 313 | 0.0 | 0.0 | 0.00 | 1.85 | 0.03 | 92 | 1010.9 |
| 20260507025653 | 7 | 313 | 0.0 | 0.0 | 0.00 | 1.85 | 0.03 | 92 | 1011.0 |
| 20260507025153 | 7 | 313 | 0.0 | 0.0 | 0.00 | 1.85 | 0.03 | 92 | 1010.9 |
| 20260507024652 | 7 | 313 | 0.0 | 0.0 | 0.00 | 1.85 | 0.03 | 92 | 1010.9 |
| 20260507024152 | 7 | 313 | 0.0 | 0.0 | 0.00 | 1.85 | 0.03 | 92 | 1010.9 |
| 20260507023652 | 7 | 313 | 0.0 | 3.2 | 0.00 | 1.85 | 0.03 | 92 | 1010.9 |
| 20260507023151 | 7 | 302 | 0.0 | 3.2 | 0.00 | 1.85 | 0.03 | 92 | 1011.0 |
| 20260507022651 | 7 | 302 | 0.0 | 3.2 | 0.00 | 1.85 | 0.03 | 92 | 1010.9 |
| 20260507022151 | 7 | 308 | 0.0 | 1.6 | 0.00 | 1.85 | 0.03 | 93 | 1011.0 |
| 20260507021651 | 7 | 308 | 0.0 | 1.6 | 0.00 | 1.85 | 0.03 | 92 | 1010.9 |
| 20260507021150 | 7 | 321 | 0.0 | 0.0 | 0.00 | 1.85 | 0.03 | 92 | 1010.9 |
| 20260507020650 | 7 | 321 | 0.0 | 0.0 | 0.00 | 1.85 | 0.03 | 92 | 1010.9 |
| 20260507020150 | 7 | 321 | 0.0 | 0.0 | 0.00 | 1.85 | 0.03 | 92 | 1010.8 |
| 20260507015650 | 7 | 321 | 0.0 | 0.0 | 0.00 | 1.88 | 0.03 | 92 | 1010.9 |
| 20260507015149 | 7 | 321 | 0.0 | 0.0 | 0.00 | 1.88 | 0.03 | 92 | 1010.8 |
| 20260507014649 | 7 | 321 | 0.0 | 1.6 | 0.00 | 1.88 | 0.03 | 92 | 1010.9 |
| 20260507014149 | 7 | 321 | 0.0 | 1.6 | 0.00 | 1.88 | 0.03 | 93 | 1010.7 |
| 20260507013649 | 7 | 303 | 0.0 | 1.6 | 0.00 | 1.88 | 0.03 | 93 | 1010.6 |
| 20260507013148 | 7 | 303 | 0.0 | 1.6 | 0.00 | 1.88 | 0.03 | 94 | 1010.6 |
| 20260507012648 | 7 | 303 | 0.0 | 0.0 | 0.00 | 1.88 | 0.03 | 94 | 1010.5 |
| 20260507012148 | 7 | 303 | 0.0 | 0.0 | 0.00 | 1.88 | 0.03 | 94 | 1010.5 |
| 20260507011647 | 7 | 303 | 0.0 | 0.0 | 0.00 | 1.88 | 0.03 | 94 | 1010.6 |
| 20260507011147 | 7 | 303 | 0.0 | 0.0 | 0.00 | 1.88 | 0.03 | 94 | 1010.6 |
| 20260507010647 | 7 | 303 | 0.0 | 0.0 | 0.00 | 1.88 | 0.03 | 94 | 1010.6 |
| 20260507010147 | 7 | 303 | 0.0 | 0.0 | 0.00 | 1.88 | 0.03 | 94 | 1010.6 |
| 20260507005646 | 7 | 303 | 0.0 | 0.0 | 0.00 | 1.88 | 0.03 | 93 | 1010.5 |
| 20260507005146 | 7 | 303 | 0.0 | 0.0 | 0.00 | 1.88 | 0.03 | 93 | 1010.5 |
| 20260507004646 | 7 | 303 | 0.0 | 0.0 | 0.00 | 1.88 | 0.03 | 93 | 1010.7 |
| 20260507004146 | 7 | 303 | 0.0 | 0.0 | 0.00 | 1.88 | 0.03 | 93 | 1010.6 |
| 20260507003645 | 7 | 303 | 0.0 | 1.6 | 0.00 | 1.88 | 0.03 | 93 | 1010.6 |
| 20260507003145 | 7 | 303 | 0.0 | 1.6 | 0.00 | 1.88 | 0.03 | 93 | 1010.7 |
| 20260507002645 | 7 | 303 | 0.0 | 0.0 | 0.00 | 1.88 | 0.03 | 93 | 1010.8 |
| 20260507002144 | 7 | 303 | 0.0 | 0.0 | 0.00 | 1.88 | 0.03 | 93 | 1010.6 |
| 20260507001644 | 7 | 303 | 0.0 | 1.6 | 0.00 | 1.88 | 0.03 | 93 | 1010.7 |
| 20260507001144 | 7 | 303 | 0.0 | 1.6 | 0.00 | 1.88 | 0.03 | 93 | 1010.6 |
| 20260507000644 | 7 | 303 | 0.0 | 0.0 | 0.00 | 1.88 | 0.03 | 93 | 1010.6 |
| 20260507000144 | 7 | 303 | 0.0 | 1.6 | 0.00 | 1.88 | 0.03 | 93 | 1010.6 |
| 20260506235643 | 7 | 303 | 0.0 | 3.2 | 0.00 | 1.88 | 0.03 | 93 | 1010.5 |
| 20260506235143 | 7 | 303 | 0.0 | 1.6 | 0.00 | 1.88 | 0.03 | 93 | 1010.7 |
| 20260506234643 | 7 | 303 | 0.0 | 0.0 | 0.00 | 1.88 | 0.03 | 93 | 1010.6 |
| 20260506234143 | 7 | 303 | 0.0 | 1.6 | 0.00 | 1.88 | 0.03 | 93 | 1010.7 |
| 20260506233642 | 7 | 303 | 1.6 | 4.8 | 0.03 | 1.88 | 0.03 | 93 | 1010.6 |
| 20260506233142 | 7 | 301 | 1.6 | 4.8 | 0.03 | 1.88 | 0.03 | 93 | 1010.6 |
| 20260506232642 | 7 | 313 | 0.0 | 4.8 | 0.03 | 1.88 | 0.03 | 93 | 1010.5 |
| 20260506232141 | 7 | 314 | 0.0 | 1.6 | 0.03 | 1.88 | 0.03 | 93 | 1010.6 |
| 20260506231641 | 7 | 303 | 0.0 | 1.6 | 0.03 | 1.88 | 0.03 | 93 | 1010.5 |
| 20260506231141 | 7 | 303 | 0.0 | 1.6 | 0.03 | 1.88 | 0.03 | 93 | 1010.5 |
| 20260506230641 | 7 | 304 | 0.0 | 0.0 | 0.03 | 1.88 | 0.03 | 93 | 1010.5 |
| 20260506230140 | 7 | 111 | 0.0 | 0.0 | 0.03 | 1.88 | 0.03 | 93 | 1010.5 |
| 20260506225640 | 8 | 317 | 0.0 | 0.0 | 0.03 | 1.88 | 0.03 | 92 | 1010.4 |
| 20260506225140 | 8 | 317 | 0.0 | 1.6 | 0.03 | 1.88 | 0.03 | 92 | 1010.4 |
| 20260506224639 | 8 | 317 | 0.0 | 0.0 | 0.03 | 1.88 | 0.03 | 92 | 1010.4 |
| 20260506224139 | 8 | 317 | 0.0 | 0.0 | 0.03 | 1.88 | 0.03 | 92 | 1010.4 |
| 20260506223639 | 8 | 317 | 0.0 | 0.0 | 0.00 | 1.85 | 0.00 | 92 | 1010.4 |
| 20260506223139 | 8 | 317 | 0.0 | 0.0 | 0.03 | 1.85 | 0.00 | 91 | 1010.4 |
| 20260506222638 | 8 | 317 | 0.0 | 3.2 | 0.03 | 1.85 | 0.00 | 91 | 1010.3 |
| 20260506222138 | 8 | 311 | 0.0 | 1.6 | 0.03 | 1.85 | 0.00 | 91 | 1010.4 |
| 20260506221638 | 8 | 311 | 0.0 | 0.0 | 0.05 | 1.85 | 0.00 | 91 | 1010.4 |
| 20260506221138 | 8 | 311 | 0.0 | 3.2 | 0.05 | 1.85 | 0.00 | 91 | 1010.4 |
| 20260506220637 | 8 | 307 | 0.0 | 0.0 | 0.05 | 1.85 | 0.00 | 91 | 1010.4 |
| 20260506220137 | 8 | 307 | 0.0 | 0.0 | 0.05 | 1.85 | 0.00 | 90 | 1010.3 |
| 20260506215637 | 8 | 307 | 0.0 | 3.2 | 0.05 | 1.85 | 1.85 | 90 | 1010.3 |
| 20260506215137 | 8 | 314 | 0.0 | 1.6 | 0.05 | 1.85 | 1.85 | 91 | 1010.3 |
| 20260506214636 | 8 | 314 | 0.0 | 1.6 | 0.08 | 1.85 | 1.85 | 91 | 1010.2 |
| 20260506214136 | 8 | 314 | 0.0 | 3.2 | 0.10 | 1.85 | 1.85 | 91 | 1010.2 |
| 20260506213636 | 8 | 321 | 0.0 | 3.2 | 0.15 | 1.85 | 1.85 | 92 | 1010.2 |
| 20260506213135 | 8 | 305 | 0.0 | 0.0 | 0.15 | 1.83 | 1.83 | 92 | 1010.1 |
| 20260506212635 | 8 | 305 | 0.0 | 0.0 | 0.18 | 1.83 | 1.83 | 92 | 1010.1 |
| 20260506212135 | 8 | 305 | 0.0 | 0.0 | 0.25 | 1.83 | 1.83 | 92 | 1010.1 |
| 20260506211635 | 8 | 305 | 0.0 | 0.0 | 0.25 | 1.80 | 1.80 | 91 | 1010.0 |
| 20260506211134 | 8 | 305 | 0.0 | 0.0 | 0.25 | 1.80 | 1.80 | 91 | 1010.0 |
| 20260506210634 | 8 | 305 | 0.0 | 0.0 | 0.25 | 1.80 | 1.80 | 91 | 1010.0 |
| 20260506210134 | 8 | 305 | 0.0 | 0.0 | 0.25 | 1.80 | 1.80 | 90 | 1009.9 |
| 20260506205634 | 8 | 305 | 0.0 | 0.0 | 0.25 | 1.88 | 1.80 | 90 | 1010.0 |
| 20260506205134 | 9 | 305 | 0.0 | 0.0 | 0.25 | 1.88 | 1.80 | 89 | 1009.9 |
| 20260506204633 | 9 | 305 | 0.0 | 6.4 | 0.23 | 1.85 | 1.78 | 88 | 1010.0 |
| 20260506204133 | 9 | 302 | 0.0 | 4.8 | 0.20 | 1.83 | 1.75 | 87 | 1009.9 |
| 20260506203632 | 9 | 300 | 0.0 | 3.2 | 0.15 | 1.78 | 1.70 | 87 | 1010.0 |